AD4ES Weather Reports


time (UTC)temp
C
wind
direction
speed
KPH
gust
KPH
rain 1hr
cm
rain 24hr
cm
rain mn
cm
humidity
%
barometer
mb
20260507180033 32 303 3.2 6.4 0.00 0.00 0.00 56 1015.1
20260507174522 32 227 3.2 8.0 0.00 0.00 0.00 55 1015.2
20260507173017 32 186 1.6 12.9 0.00 0.00 0.00 57 1015.3
20260507171514 31 129 3.2 8.0 0.00 0.00 0.00 61 1015.1
20260507170016 31 315 3.2 8.0 0.00 0.00 0.00 61 1015.4
20260507164512 31 134 3.2 14.5 0.00 0.00 0.00 60 1015.6
20260507163010 31 306 3.2 9.7 0.00 0.00 0.00 61 1015.7
20260507161509 31 325 1.6 8.0 0.00 0.00 0.00 61 1016.0
20260507160006 30 235 3.2 11.3 0.00 0.00 0.00 63 1016.0
20260507154506 30 248 3.2 9.7 0.00 0.00 0.00 63 1016.3
20260507153003 30 187 3.2 11.3 0.00 0.00 0.00 66 1016.3
20260507151600 29 266 3.2 12.9 0.00 0.00 0.00 66 1016.5
20260507150104 28 259 3.2 11.3 0.00 0.00 0.00 69 1016.5
20260507144555 28 288 4.8 12.9 0.00 0.00 0.00 69 1016.5
20260507143100 28 285 1.6 11.3 0.00 0.00 0.00 72 1016.6
20260507141555 27 259 4.8 12.9 0.00 0.00 0.00 71 1016.5
20260507140048 27 218 3.2 6.4 0.00 0.00 0.00 73 1016.6
20260507134553 26 56 1.6 8.0 0.00 0.00 0.00 74 1016.7
20260507133042 26 179 3.2 11.3 0.00 0.00 0.00 77 1016.6
20260507131540 25 176 3.2 8.0 0.00 0.00 0.00 80 1016.5
20260507130034 24 186 0.0 6.4 0.00 0.00 0.00 84 1016.7
20260507124533 23 299 1.6 4.8 0.00 0.00 0.00 87 1016.7
20260507123033 21 224 0.0 3.2 0.00 0.00 0.00 92 1016.7
20260507121532 20 181 0.0 4.8 0.00 0.00 0.00 95 1016.7
20260507120030 20 196 0.0 1.6 0.00 0.00 0.00 95 1016.6
20260507114533 19 196 0.0 0.0 0.00 0.00 0.00 95 1016.6
20260507113028 18 196 0.0 0.0 0.00 0.00 0.00 94 1016.6
20260507111530 18 196 0.0 0.0 0.00 0.00 0.00 94 1016.3
20260507110035 18 196 0.0 0.0 0.00 0.00 0.00 94 1016.2
20260507104527 18 196 0.0 0.0 0.00 0.00 0.00 94 1016.1
20260507103029 18 196 0.0 0.0 0.00 0.00 0.00 94 1016.0
20260507101526 18 196 0.0 0.0 0.00 0.00 0.00 93 1015.8
20260507100028 18 196 0.0 0.0 0.00 0.00 0.00 93 1015.5
20260507094524 18 196 0.0 0.0 0.00 0.00 0.00 93 1015.1
20260507093024 18 196 0.0 0.0 0.00 0.00 0.00 93 1015.1
20260507091524 18 196 0.0 0.0 0.00 0.00 0.00 93 1015.2
20260507090034 18 196 0.0 0.0 0.00 0.00 0.00 92 1015.2
20260507084532 18 196 0.0 0.0 0.00 0.00 0.00 92 1015.2
20260507083021 18 196 0.0 0.0 0.00 0.00 0.00 92 1015.1
20260507081520 18 196 0.0 0.0 0.00 0.00 0.00 92 1014.9
20260507080018 18 196 0.0 0.0 0.00 0.00 0.00 91 1014.9
20260507074527 18 170 0.0 0.0 0.00 0.00 0.00 91 1015.0
20260507073014 19 170 0.0 0.0 0.00 0.00 0.00 91 1015.1
20260507071513 19 170 0.0 0.0 0.00 0.00 0.00 90 1015.1
20260507070013 19 170 0.0 0.0 0.00 0.00 0.00 90 1015.4
20260507064507 19 170 0.0 0.0 0.00 0.00 0.00 89 1015.6
20260507063006 20 170 0.0 0.0 0.00 0.00 0.00 89 1015.8
20260507061503 20 170 0.0 1.6 0.00 0.00 0.00 88 1015.8
20260507060001 20 170 0.0 0.0 0.00 0.00 0.00 88 1016.0
20260507054600 21 124 0.0 1.6 0.00 0.00 0.00 87 1016.0
20260507053056 21 203 0.0 1.6 0.00 0.00 0.00 86 1016.2
20260507051555 21 181 0.0 3.2 0.00 0.00 0.00 85 1016.4
20260507050050 22 235 0.0 3.2 0.00 0.00 0.00 84 1016.7
20260507044548 23 216 0.0 6.4 0.00 0.00 0.00 82 1016.8
20260507043044 23 74 0.0 3.2 0.00 0.00 0.00 81 1016.2
20260507041540 23 99 0.0 6.4 0.00 0.00 0.00 80 1015.9
20260507040038 23 92 1.6 9.7 0.00 0.00 0.00 80 1016.0
20260507034551 24 88 0.0 4.8 0.00 0.00 0.00 80 1016.2
20260507033041 24 86 1.6 4.8 0.00 0.00 0.00 79 1016.1
20260507031535 24 93 0.0 6.4 0.00 0.00 0.00 79 1016.3
20260507030036 24 98 0.0 3.2 0.00 0.00 0.00 78 1016.0
20260507024548 24 90 1.6 6.4 0.00 0.00 0.00 78 1016.1
20260507023032 24 103 1.6 3.2 0.00 0.00 0.00 77 1016.4
20260507021540 24 93 0.0 6.4 0.00 0.00 0.00 77 1016.3
20260507020032 24 94 1.6 4.8 0.00 0.00 0.00 75 1016.3
20260507014539 24 88 0.0 3.2 0.00 0.00 0.00 74 1016.4
20260507013031 24 63 0.0 4.8 0.00 0.00 0.00 73 1016.4
20260507011539 25 113 1.6 4.8 0.00 0.00 0.00 72 1016.3
20260507010030 25 101 0.0 3.2 0.00 0.00 0.00 71 1016.2
20260507004528 25 100 1.6 3.2 0.00 0.00 0.00 70 1016.1
20260507003027 25 91 1.6 4.8 0.00 0.00 0.00 67 1016.0
20260507001527 25 93 1.6 6.4 0.00 0.00 0.00 64 1015.8
20260507000025 25 84 1.6 11.3 0.00 0.00 0.00 63 1015.6
20260506234525 26 87 3.2 9.7 0.00 0.00 0.00 60 1015.7
20260506233025 26 88 3.2 8.0 0.00 0.00 0.00 57 1015.7
20260506231524 26 80 1.6 9.7 0.00 0.00 0.00 57 1015.9
20260506230023 27 82 1.6 11.3 0.00 0.00 0.00 57 1015.8
20260506224523 27 92 4.8 9.7 0.00 0.00 0.00 56 1015.8
20260506223022 27 128 3.2 11.3 0.00 0.00 0.00 59 1015.7
20260506221521 28 107 3.2 14.5 0.00 0.00 0.00 57 1015.9
20260506220021 28 95 1.6 11.3 0.00 0.00 0.00 57 1015.9
20260506214520 28 59 3.2 14.5 0.00 0.00 0.00 58 1015.9
20260506213020 28 137 3.2 11.3 0.00 0.00 0.00 56 1015.9
20260506211518 28 94 3.2 14.5 0.00 0.00 0.00 54 1016.0
20260506210018 29 96 4.8 11.3 0.00 0.00 0.00 52 1016.0
20260506204521 29 118 3.2 11.3 0.00 0.00 0.00 51 1016.1
20260506203017 29 49 3.2 12.9 0.00 0.00 0.00 53 1015.9
20260506201523 29 119 4.8 14.5 0.00 0.00 0.00 53 1016.0
20260506200017 30 82 3.2 14.5 0.00 0.00 0.00 50 1016.0
20260506194515 30 97 3.2 14.5 0.00 0.00 0.00 54 1016.1
20260506193014 30 151 4.8 11.3 0.00 0.00 0.00 51 1016.3
20260506191513 30 138 3.2 8.0 0.00 0.00 0.00 53 1016.4
20260506190012 30 107 4.8 11.3 0.00 0.00 0.00 50 1016.6
20260506184520 30 142 4.8 12.9 0.00 0.00 0.00 52 1016.6
20260506183013 30 130 3.2 9.7 0.00 0.00 0.00 53 1016.8
20260506181510 30 88 3.2 14.5 0.00 0.00 0.00 51 1016.8